Flag for United Kingdom Weather past 2 weeks in Lerwick (Shetland Islands), Scotland, United Kingdom

Now
58 °F

Low clouds.


Feels Like: 57 °F
Forecast: 53 / 57 °F
Wind: 7 mph from Southeast

Location: Lerwick

Current Time: Aug 31, 2014 at 11:48:02 AM

Latest Report: Aug 31, 2014 at 11:00 AM


Visibility: 22 mi

Pressure: 29.93 "Hg

Humidity: 87%

Dew point: 54 °F

Location of Lerwick (Shetland Islands)Location

Historic Weather in Lerwick (Shetland Islands) — Graph

°F

Lerwick (Shetland Islands) temperature yesterday

Maximum temperature yesterday: 59 °F (at 2:00 PM)
Minimum temperature yesterday: 55 °F (at 11:00 PM)
Average temperature yesterday: 56 °F

Past Weeks' High & Low Weather Summary

 TemperatureHumidityPressure
High59 °F (Aug 29, 2:00 PM)100% (Aug 29, 4:00 AM)30.08 "Hg (Aug 29, 4:00 AM)
Low45 °F (Aug 21, 6:00 AM)61% (Aug 23, 4:00 PM)29.21 "Hg (Aug 17, 4:00 AM)
Average52 °F85%29.76 "Hg
* Reported Aug 16 10:00 AM — Aug 31 10:00 AM, Lerwick (Shetland Islands), Weather by CustomWeather, © 2014

Note: Actual official high and low records may vary slightly from our data, if they occured in-between our weather recording intervals... More about our weather records

Advertising

Lerwick (Shetland Islands) weather history for previous 24 hours

 ConditionsComfort  
Time TempWeatherWind HumidityBarometerVisibility
10:00 AM
Aug 31
57 °FLow clouds.6 mph92%29.94 "Hg22 mi
9:00 AM56 °FLow clouds.5 mph98%29.93 "Hg22 mi
8:00 AM56 °FFog.6 mph99%29.92 "Hg3 mi
7:00 AM55 °FFog.5 mph99%29.91 "Hg2 mi
6:00 AM55 °FCool.3 mph98%29.90 "Hg6 mi
5:00 AM54 °FFog.7 mph99%29.89 "Hg4 mi
4:00 AM55 °FCool.7 mph98%29.89 "Hg9 mi
3:00 AM55 °FFog.7 mph98%29.88 "Hg1 mi
2:00 AM55 °FLow clouds.9 mph98%29.85 "Hg11 mi
1:00 AM55 °FDrizzle. Low clouds.13 mph97%29.84 "Hg7 mi
12:00 AM55 °FLow clouds.13 mph98%29.84 "Hg9 mi
11:00 PM
Aug 30
55 °FLow clouds.13 mph99%29.83 "Hg9 mi
10:00 PM55 °FLow clouds.12 mph97%29.81 "Hg11 mi
9:00 PM56 °FLow clouds.16 mph96%29.79 "Hg11 mi
8:00 PM56 °FCool.15 mph96%29.78 "Hg8 mi
7:00 PM56 °FLow clouds.16 mph95%29.76 "Hg9 mi
6:00 PM56 °FLow clouds.16 mph94%29.74 "Hg12 mi
5:00 PM57 °FLight rain. Low clouds.17 mph91%29.72 "Hg13 mi
4:00 PM57 °FLow clouds.18 mph93%29.71 "Hg9 mi
3:00 PM57 °FLight rain. Low clouds.16 mph98%29.71 "Hg5 mi
2:00 PM59 °FLight rain. Low clouds.18 mph94%29.69 "Hg11 mi
1:00 PM57 °FLow clouds.18 mph97%29.67 "Hg7 mi
12:00 PM57 °FLight rain. Low clouds.15 mph94%29.67 "Hg6 mi
11:00 AM57 °FLow clouds.20 mph91%29.65 "Hg11 mi
Weather by CustomWeather, © 2014

See weather overviewHow to use our weather pages